Regional Weather Roundup
Issued by NWS Newport/Morehead, NC

Current Version | Previous Version | Text Only | Print | Product List | Glossary On
Versions: 1 2 3 4 5 6 7 8 9 10 11 12 13 14 15 16 17 18 19 20 21 22 23 24 25 26 27 28 29 30 31 32 33 34 35 36 37 38 39 40 41 42 43 44 45 46 47 48 49 50
000
ASUS42 KMHX 042326
RWRMHX
WEATHER ROUNDUP FOR EASTERN NORTH CAROLINA
NATIONAL WEATHER SERVICE NEWPORT/MOREHEAD CITY NC
700 PM EDT FRI SEP 04 2015

NOTE: "FAIR" INDICATES FEW OR NO CLOUDS BELOW 12,000 FEET
WITH NO SIGNIFICANT WEATHER AND/OR OBSTRUCTIONS TO VISIBILITY

NCZ015>017-031-032-045>047-102-103-050000-
NORTH COAST

CITY           SKY/WX    TMP DP  RH WIND       PRES   REMARKS
EDENTON        MOCLDY    77  70  80 NE6       29.99S
ELIZABETH CITY MOCLDY    79  72  79 NE10      30.00S
KITTY HAWK     PTCLDY    80  73  79 NE5       29.98S
MANTEO         PTCLDY    79  73  83 NE12      29.99S

$$

NCZ045>047-081-094-103-104-050000-
CENTRAL COAST

CITY           SKY/WX    TMP DP  RH WIND       PRES   REMARKS
FRISCO         PTCLDY    80  73  79 NE8       29.96R
SWANQUARTER      N/A     79 N/A N/A N5G13     29.94S

$$

NCZ095-097-098-100-101-050000-
SOUTHERN COAST

CITY           SKY/WX    TMP DP  RH WIND       PRES   REMARKS
BEAUFORT       PTCLDY    82  75  79 W5        29.95R
CEDAR ISLAND     N/A     82 N/A N/A NE14G21   30.00S
JACKSONVILLE   PTCLDY    85  70  60 N9        29.96R
PINEY ISLAND   PTCLDY   N/A N/A N/A NE13      29.96R HAZE
WILMINGTON     CLEAR     84  68  58 S3        29.95R


$$

NCZ011>013-027>030-043-044-078>080-089-090>093-098-050000-
COASTAL PLAIN

CITY           SKY/WX    TMP DP  RH WIND       PRES   REMARKS
AHOSKIE        CLOUDY    78  71  78 NE3       30.01R
CLINTON        RAIN      73  72  97 CALM      30.00S
ELIZABETHTOWN  MOCLDY    85  71  64 N6        29.99R
GOLDSBORO      CLOUDY    76  70  82 N5        29.98R
GREENVILLE     CLOUDY    77  70  78 N5        30.01S HAZE
HAVELOCK       TSTM      78  66  66 E12       29.97R
KENANSVILLE      N/A     80  67  63 NW5       30.00R
KINSTON        CLOUDY    79  70  73 N6        29.99R
NEW BERN       MOCLDY    82  71  69 CALM      29.97S
RICHLANDS      PTCLDY    82  70  65 NW3       29.97R
ROCKY MOUNT    CLOUDY    75  67  76 N7        29.98F
WASHINGTON     MOCLDY    78  71  79 NE6       29.98R
WHITEVILLE     CLEAR     86  74  68 S3        29.96R

$$

AMZ130-135-150-152-154-156-158-170-250-252-270-ANZ085-086-088-633-658-670-050000-
MARINE OBSERVATIONS

STATION/POSITION TIME  TEMP    WIND        PRES    WAVE   SWELL
                       AIR SEA DIR/SP/G            HT/PER HT/PER
                 (UTC) (F)     (DEG/KT/KT) (MB)    (FT/S) (FT/S)
CHESAPEAKE LIGHT 2300   80      70/ 19/ 20 1016.8
64 E VA BEACH    2250   80 80   60/ 16/ 19 1015.4    3/ 4   2/11
DUCK             2300   80 81   40/ 17/ 17 1015.0
2 E DUCK         2211      81                N/A     3/ 4
OREGON INLET     2300   80 83   30/ 14/ 16 1014.8
13E OREGON INLT  2300      81                N/A     2/11
HATTERAS CG      2300   81 84   30/ 10/ 14 1014.2
DIAMOND BUOY     2250   81 84   20/ 12/ 14 1014.2    1/10   2/10
CAPE LOOKOUT     2300   83     260/  2/  2 1013.9
BEAUFORT LAB     2300   83 83  260/  2/  5 1013.6
30 SE NEW RVR IN 2208   83 84  180/  2/  4 1014.3
30 SE NEW RVR IN 2225      84                N/A     1/11
27 SE WRIGHTSVLE 2300   80 83  200/  2/  4   N/A
5 SE WRIGHTSVLE  2208   84 83  180/  6/  8 1014.2
225 S CAPE HAT   2250   83 85   10/  8/ 10 1013.1    1/11   2/11
41 SE CHARLESTON 2250   83 85   50/  2/  4 1014.2    1/ 8   2/ 8

$$


USA.gov is the U.S. government's official web portal to all federal, state and local government web resources and services.